When you browse on this site, cookies collect data to enhance your experience and personalize the content and advertising you see.
Visit our Privacy Policy to learn more. By continuing to use the site, you agree to this use of cookies and data.
  • In Austria
  • List of Countries
  • For 7 days
  • Water Temperature
  • Satellite Maps
  • Weather Map
  • News
  • Weather Widgets
  • user-avatar
    Login

    Hourly Weather Braga

    Today, 19 May, Sunday

    Time Temperature Precipitation Wind Pressure Humidity
    00:00 +9°C° 0 mm 1 mps 751 mmHg 84%
    01:00 +9°C° 0 mm 1 mps 750 mmHg 85%
    02:00 +8°C° 0 mm 1 mps 750 mmHg 86%
    03:00 +9°C° 0 mm 1 mps 750 mmHg 85%
    04:00 +9°C° 0 mm 1 mps 750 mmHg 84%
    05:00 +9°C° 0 mm 1 mps 750 mmHg 81%
    06:00 +12°C° 0 mm 1 mps 750 mmHg 71%
    07:00 +14°C° 0 mm 1 mps 750 mmHg 60%
    08:00 +16°C° 0 mm 1 mps 750 mmHg 50%
    09:00 +18°C° 0 mm 1 mps 750 mmHg 46%
    10:00 +18°C° 0 mm 2 mps 750 mmHg 42%
    11:00 +19°C° 0 mm 3 mps 750 mmHg 40%
    12:00 +19°C° 0 mm 3 mps 750 mmHg 40%
    13:00 +19°C° 0 mm 3 mps 750 mmHg 41%
    14:00 +19°C° 0 mm 4 mps 749 mmHg 41%
    15:00 +19°C° 0 mm 4 mps 749 mmHg 46%
    16:00 +18°C° 0 mm 3 mps 749 mmHg 50%
    17:00 +17°C° 0 mm 3 mps 749 mmHg 55%
    18:00 +15°C° 0 mm 2 mps 749 mmHg 63%
    19:00 +13°C° 0 mm 2 mps 750 mmHg 72%
    20:00 +12°C° 0 mm 1 mps 750 mmHg 80%
    21:00 +11°C° 0 mm 1 mps 750 mmHg 80%
    22:00 +11°C° 0 mm 1 mps 750 mmHg 80%
    23:00 +11°C° 0 mm 1 mps 750 mmHg 81%

    Tomorrow, 20 May, Monday

    Time Temperature Precipitation Wind Pressure Humidity
    00:00 +11°C° 0 mm 1 mps 750 mmHg 81%
    01:00 +11°C° 0 mm 1 mps 750 mmHg 82%
    02:00 +10°C° 0 mm 1 mps 750 mmHg 83%
    03:00 +10°C° 0 mm 1 mps 750 mmHg 82%
    04:00 +10°C° 0 mm 0 mps 750 mmHg 80%
    05:00 +10°C° 0 mm 0 mps 750 mmHg 79%
    06:00 +12°C° 0 mm 0 mps 750 mmHg 72%
    07:00 +15°C° 0 mm 1 mps 750 mmHg 65%
    08:00 +18°C° 0 mm 1 mps 750 mmHg 58%
    09:00 +19°C° 0 mm 1 mps 750 mmHg 52%
    10:00 +19°C° 0 mm 2 mps 750 mmHg 46%
    11:00 +21°C° 0 mm 3 mps 750 mmHg 40%
    12:00 +21°C° 0 mm 3 mps 750 mmHg 41%
    13:00 +21°C° 0 mm 3 mps 749 mmHg 42%
    14:00 +21°C° 0 mm 3 mps 749 mmHg 42%
    15:00 +20°C° 0 mm 3 mps 749 mmHg 46%
    16:00 +19°C° 0 mm 3 mps 749 mmHg 50%
    17:00 +18°C° 0 mm 2 mps 749 mmHg 54%
    18:00 +16°C° 0 mm 2 mps 749 mmHg 60%
    19:00 +14°C° 0 mm 1 mps 750 mmHg 65%
    20:00 +12°C° 0 mm 0 mps 750 mmHg 71%
    21:00 +12°C° 0 mm 0 mps 750 mmHg 72%
    22:00 +12°C° 0 mm 0 mps 750 mmHg 72%
    23:00 +13°C° 0 mm 1 mps 750 mmHg 72%

    Day after tomorrow, 21 May, Tuesday

    Time Temperature Precipitation Wind Pressure Humidity
    00:00 +13°C° 0 mm 1 mps 750 mmHg 72%
    01:00 +13°C° 0 mm 1 mps 750 mmHg 71%
    02:00 +13°C° 0 mm 1 mps 750 mmHg 70%
    03:00 +13°C° 0 mm 1 mps 750 mmHg 71%
    04:00 +13°C° 0 mm 1 mps 750 mmHg 73%
    05:00 +13°C° 0 mm 1 mps 751 mmHg 74%
    06:00 +15°C° 0 mm 1 mps 751 mmHg 68%
    07:00 +19°C° 0 mm 1 mps 751 mmHg 61%
    08:00 +20°C° 0 mm 0 mps 751 mmHg 55%
    09:00 +23°C° 0 mm 1 mps 751 mmHg 52%
    10:00 +24°C° 0 mm 1 mps 751 mmHg 49%
    11:00 +25°C° 0 mm 2 mps 751 mmHg 47%
    12:00 +25°C° 0 mm 2 mps 751 mmHg 48%
    13:00 +24°C° 0 mm 3 mps 750 mmHg 49%
    14:00 +24°C° 0 mm 3 mps 750 mmHg 51%
    15:00 +24°C° 0 mm 3 mps 750 mmHg 54%
    16:00 +22°C° 0 mm 3 mps 750 mmHg 57%
    17:00 +21°C° 0 mm 3 mps 750 mmHg 60%
    18:00 +19°C° 0 mm 2 mps 751 mmHg 66%
    19:00 +19°C° 0 mm 1 mps 751 mmHg 73%
    20:00 +16°C° 0 mm 1 mps 752 mmHg 80%
    21:00 +16°C° 0 mm 1 mps 752 mmHg 80%
    22:00 +15°C° 0 mm 1 mps 752 mmHg 81%
    23:00 +15°C° 0 mm 1 mps 752 mmHg 82%

    22 May, Wednesday

    Time Temperature Precipitation Wind Pressure Humidity
    00:00 +15°C° 0 mm 1 mps 752 mmHg 82%
    01:00 +15°C° 0 mm 1 mps 752 mmHg 82%
    02:00 +14°C° 0 mm 1 mps 751 mmHg 82%
    03:00 +15°C° 0 mm 1 mps 751 mmHg 81%
    04:00 +15°C° 0 mm 1 mps 751 mmHg 80%
    05:00 +15°C° 0 mm 1 mps 751 mmHg 79%
    06:00 +18°C° 0 mm 1 mps 752 mmHg 71%
    07:00 +21°C° 0 mm 1 mps 752 mmHg 62%
    08:00 +24°C° 0 mm 1 mps 752 mmHg 54%
    09:00 +25°C° 0 mm 1 mps 752 mmHg 50%
    10:00 +26°C° 0 mm 2 mps 752 mmHg 47%
    11:00 +26°C° 0 mm 2 mps 752 mmHg 43%
    12:00 +26°C° 0 mm 3 mps 752 mmHg 43%
    13:00 +26°C° 0 mm 3 mps 752 mmHg 42%
    14:00 +26°C° 0 mm 3 mps 751 mmHg 42%
    15:00 +25°C° 0 mm 3 mps 751 mmHg 44%
    16:00 +24°C° 0 mm 3 mps 751 mmHg 47%
    17:00 +22°C° 0 mm 3 mps 751 mmHg 49%
    18:00 +20°C° 0 mm 2 mps 752 mmHg 55%
    19:00 +19°C° 0 mm 1 mps 752 mmHg 60%
    20:00 +16°C° 0 mm 1 mps 753 mmHg 66%
    21:00 +16°C° 0 mm 1 mps 753 mmHg 67%
    22:00 +15°C° 0 mm 1 mps 753 mmHg 68%
    23:00 +15°C° 0 mm 1 mps 753 mmHg 68%

    23 May, Thursday

    Time Temperature Precipitation Wind Pressure Humidity
    00:00 +15°C° 0 mm 1 mps 753 mmHg 69%
    01:00 +14°C° 0 mm 1 mps 753 mmHg 69%
    02:00 +14°C° 0 mm 1 mps 753 mmHg 70%
    03:00 +14°C° 0 mm 1 mps 753 mmHg 70%
    04:00 +14°C° 0 mm 1 mps 753 mmHg 70%
    05:00 +14°C° 0 mm 1 mps 753 mmHg 70%
    06:00 +18°C° 0 mm 1 mps 753 mmHg 62%
    07:00 +20°C° 0 mm 1 mps 753 mmHg 53%
    08:00 +23°C° 0 mm 1 mps 753 mmHg 45%
    09:00 +24°C° 0 mm 2 mps 753 mmHg 43%
    10:00 +25°C° 0 mm 2 mps 753 mmHg 41%
    11:00 +26°C° 0 mm 3 mps 753 mmHg 38%
    12:00 +26°C° 0 mm 3 mps 753 mmHg 39%
    13:00 +26°C° 0 mm 4 mps 753 mmHg 41%
    14:00 +26°C° 0 mm 4 mps 753 mmHg 42%
    15:00 +25°C° 0 mm 4 mps 753 mmHg 47%
    16:00 +24°C° 0 mm 3 mps 753 mmHg 53%
    17:00 +22°C° 0 mm 3 mps 753 mmHg 59%
    18:00 +20°C° 0 mm 2 mps 753 mmHg 67%
    19:00 +19°C° 0 mm 2 mps 754 mmHg 75%
    20:00 +17°C° 0 mm 2 mps 754 mmHg 83%
    21:00 +17°C° 0 mm 2 mps 754 mmHg 84%
    22:00 +16°C° 0 mm 2 mps 754 mmHg 85%
    23:00 +16°C° 0 mm 2 mps 755 mmHg 85%

    24 May, Friday

    Time Temperature Precipitation Wind Pressure Humidity
    00:00 +16°C° 0 mm 2 mps 754 mmHg 83%
    01:00 +16°C° 0 mm 2 mps 754 mmHg 81%
    02:00 +15°C° 0 mm 2 mps 754 mmHg 79%
    03:00 +15°C° 0 mm 2 mps 754 mmHg 78%
    04:00 +15°C° 0 mm 2 mps 754 mmHg 76%
    05:00 +15°C° 0 mm 2 mps 754 mmHg 74%
    06:00 +18°C° 0 mm 2 mps 755 mmHg 65%
    07:00 +21°C° 0 mm 2 mps 755 mmHg 57%
    08:00 +24°C° 0 mm 2 mps 755 mmHg 48%
    09:00 +26°C° 0 mm 2 mps 755 mmHg 43%
    10:00 +28°C° 0 mm 2 mps 755 mmHg 37%
    11:00 +30°C° 0 mm 2 mps 754 mmHg 31%
    12:00 +30°C° 0 mm 3 mps 754 mmHg 31%
    13:00 +31°C° 0 mm 3 mps 754 mmHg 31%
    14:00 +32°C° 0 mm 4 mps 754 mmHg 30%
    15:00 +30°C° 0 mm 4 mps 754 mmHg 34%
    16:00 +29°C° 0 mm 4 mps 754 mmHg 39%
    17:00 +28°C° 0 mm 3 mps 754 mmHg 43%
    18:00 +27°C° 0 mm 3 mps 754 mmHg 47%
    19:00 +25°C° 0 mm 3 mps 755 mmHg 51%
    20:00 +22°C° 0 mm 3 mps 755 mmHg 56%
    21:00 +21°C° 0 mm 3 mps 755 mmHg 56%
    22:00 +20°C° 0 mm 3 mps 755 mmHg 56%
    23:00 +20°C° 0 mm 3 mps 756 mmHg 56%
    Show more